owner,sensor,date,latitude,longitude,sea_water_turbidity,qcFlag 
SCCF RECON,ioos:station:SCCF:51:1,2010-02-01T00:00:00Z,26.5545,-82.1715,6.14,1111122 
SCCF RECON,ioos:station:SCCF:51:1,2010-02-01T01:00:00Z,26.5545,-82.1715,6.16,1111122 
SCCF RECON,ioos:station:SCCF:51:1,2010-02-01T02:00:00Z,26.5545,-82.1715,7.93,1111122 
SCCF RECON,ioos:station:SCCF:51:1,2010-02-01T03:00:00Z,26.5545,-82.1715,7.83,1111122 
SCCF RECON,ioos:station:SCCF:51:1,2010-02-01T04:00:00Z,26.5545,-82.1715,11.73,1111122 
SCCF RECON,ioos:station:SCCF:51:1,2010-02-01T05:00:00Z,26.5545,-82.1715,22.08,1111122 
SCCF RECON,ioos:station:SCCF:51:1,2010-02-01T06:00:00Z,26.5545,-82.1715,14.37,1111122 
SCCF RECON,ioos:station:SCCF:51:1,2010-02-01T07:00:00Z,26.5545,-82.1715,12.33,1111122 
SCCF RECON,ioos:station:SCCF:51:1,2010-02-01T08:00:00Z,26.5545,-82.1715,9.89,1111122 
SCCF RECON,ioos:station:SCCF:51:1,2010-02-01T09:00:00Z,26.5545,-82.1715,9.07,1111122 
SCCF RECON,ioos:station:SCCF:51:1,2010-02-01T10:00:00Z,26.5545,-82.1715,6.09,1111122 
SCCF RECON,ioos:station:SCCF:51:1,2010-02-01T11:00:00Z,26.5545,-82.1715,5.93,1111122 
SCCF RECON,ioos:station:SCCF:51:1,2010-02-01T12:00:00Z,26.5545,-82.1715,11.09,1111122 
SCCF RECON,ioos:station:SCCF:51:1,2010-02-01T13:00:00Z,26.5545,-82.1715,7.54,1111122 
SCCF RECON,ioos:station:SCCF:51:1,2010-02-01T14:00:00Z,26.5545,-82.1715,6.95,1111122 
SCCF RECON,ioos:station:SCCF:51:1,2010-02-01T15:00:00Z,26.5545,-82.1715,7.81,1111122 
SCCF RECON,ioos:station:SCCF:51:1,2010-02-01T16:00:00Z,26.5545,-82.1715,7.7,1111122 
SCCF RECON,ioos:station:SCCF:51:1,2010-02-01T17:00:00Z,26.5545,-82.1715,14.2,1111122 
SCCF RECON,ioos:station:SCCF:51:1,2010-02-01T18:00:00Z,26.5545,-82.1715,18.78,1111122 
SCCF RECON,ioos:station:SCCF:51:1,2010-02-01T19:00:00Z,26.5545,-82.1715,14.75,1111122 
SCCF RECON,ioos:station:SCCF:51:1,2010-02-01T20:00:00Z,26.5545,-82.1715,12.72,1111122 
SCCF RECON,ioos:station:SCCF:51:1,2010-02-01T21:00:00Z,26.5545,-82.1715,12.35,1111122 
SCCF RECON,ioos:station:SCCF:51:1,2010-02-01T22:00:00Z,26.5545,-82.1715,6.4,1111122 
SCCF RECON,ioos:station:SCCF:51:1,2010-02-01T23:00:00Z,26.5545,-82.1715,5.91,1111122 
SCCF RECON,ioos:station:SCCF:51:1,2010-02-02T00:00:00Z,26.5545,-82.1715,4.95,1111122 
SCCF RECON,ioos:station:SCCF:51:1,2010-02-02T01:00:00Z,26.5545,-82.1715,4.51,1111122 
SCCF RECON,ioos:station:SCCF:51:1,2010-02-02T02:00:00Z,26.5545,-82.1715,5.43,1111122 
SCCF RECON,ioos:station:SCCF:51:1,2010-02-02T03:00:00Z,26.5545,-82.1715,4.72,1111122 
SCCF RECON,ioos:station:SCCF:51:1,2010-02-02T04:00:00Z,26.5545,-82.1715,6.89,1111122 
SCCF RECON,ioos:station:SCCF:51:1,2010-02-02T05:00:00Z,26.5545,-82.1715,14.23,1111122 
SCCF RECON,ioos:station:SCCF:51:1,2010-02-02T06:00:00Z,26.5545,-82.1715,11.87,1111122 
SCCF RECON,ioos:station:SCCF:51:1,2010-02-02T07:00:00Z,26.5545,-82.1715,9.84,1111122 
SCCF RECON,ioos:station:SCCF:51:1,2010-02-02T08:00:00Z,26.5545,-82.1715,6.41,1111122 
SCCF RECON,ioos:station:SCCF:51:1,2010-02-02T09:00:00Z,26.5545,-82.1715,7.25,1111122 
SCCF RECON,ioos:station:SCCF:51:1,2010-02-02T10:00:00Z,26.5545,-82.1715,8.01,1111122 
SCCF RECON,ioos:station:SCCF:51:1,2010-02-02T11:00:00Z,26.5545,-82.1715,6.53,1111122 
SCCF RECON,ioos:station:SCCF:51:1,2010-02-02T12:00:00Z,26.5545,-82.1715,5.88,1111122 
SCCF RECON,ioos:station:SCCF:51:1,2010-02-02T13:00:00Z,26.5545,-82.1715,5.57,1111122 
SCCF RECON,ioos:station:SCCF:51:1,2010-02-02T14:00:00Z,26.5545,-82.1715,5.31,1111122 
SCCF RECON,ioos:station:SCCF:51:1,2010-02-02T15:00:00Z,26.5545,-82.1715,4.33,1111122 
SCCF RECON,ioos:station:SCCF:51:1,2010-02-02T16:00:00Z,26.5545,-82.1715,6.23,1111122 
SCCF RECON,ioos:station:SCCF:51:1,2010-02-02T17:00:00Z,26.5545,-82.1715,8.4,1111122 
SCCF RECON,ioos:station:SCCF:51:1,2010-02-02T18:00:00Z,26.5545,-82.1715,9.17,1111122 
SCCF RECON,ioos:station:SCCF:51:1,2010-02-02T19:00:00Z,26.5545,-82.1715,8.73,1111122 
SCCF RECON,ioos:station:SCCF:51:1,2010-02-02T20:00:00Z,26.5545,-82.1715,9.39,1111122 
SCCF RECON,ioos:station:SCCF:51:1,2010-02-02T21:00:00Z,26.5545,-82.1715,6.52,1111122 
SCCF RECON,ioos:station:SCCF:51:1,2010-02-02T22:00:00Z,26.5545,-82.1715,28.5,1111122 
SCCF RECON,ioos:station:SCCF:51:1,2010-02-02T23:00:00Z,26.5545,-82.1715,5.82,1111122 
SCCF RECON,ioos:station:SCCF:51:1,2010-02-03T00:00:00Z,26.5545,-82.1715,5.23,1111122 
SCCF RECON,ioos:station:SCCF:51:1,2010-02-03T01:00:00Z,26.5545,-82.1715,4.08,1111122 
SCCF RECON,ioos:station:SCCF:51:1,2010-02-03T02:00:00Z,26.5545,-82.1715,3.77,1111122 
SCCF RECON,ioos:station:SCCF:51:1,2010-02-03T03:00:00Z,26.5545,-82.1715,4.67,1111122 
SCCF RECON,ioos:station:SCCF:51:1,2010-02-03T04:00:00Z,26.5545,-82.1715,6.65,1111122 
SCCF RECON,ioos:station:SCCF:51:1,2010-02-03T05:00:00Z,26.5545,-82.1715,7.18,1111122 
SCCF RECON,ioos:station:SCCF:51:1,2010-02-03T06:00:00Z,26.5545,-82.1715,5.86,1111122 
SCCF RECON,ioos:station:SCCF:51:1,2010-02-03T07:00:00Z,26.5545,-82.1715,12.16,1111122 
SCCF RECON,ioos:station:SCCF:51:1,2010-02-03T08:00:00Z,26.5545,-82.1715,11.7,1111122 
SCCF RECON,ioos:station:SCCF:51:1,2010-02-03T09:00:00Z,26.5545,-82.1715,7.39,1111122 
SCCF RECON,ioos:station:SCCF:51:1,2010-02-03T10:00:00Z,26.5545,-82.1715,7.07,1111122 
SCCF RECON,ioos:station:SCCF:51:1,2010-02-03T11:00:00Z,26.5545,-82.1715,8.62,1111122 
SCCF RECON,ioos:station:SCCF:51:1,2010-02-03T12:00:00Z,26.5545,-82.1715,8.28,1111122 
SCCF RECON,ioos:station:SCCF:51:1,2010-02-03T13:00:00Z,26.5545,-82.1715,13.55,1111122 
SCCF RECON,ioos:station:SCCF:51:1,2010-02-03T14:00:00Z,26.5545,-82.1715,6.37,1111122 
SCCF RECON,ioos:station:SCCF:51:1,2010-02-03T15:00:00Z,26.5545,-82.1715,7.59,1111122 
SCCF RECON,ioos:station:SCCF:51:1,2010-02-03T16:00:00Z,26.5545,-82.1715,6.47,1111122 
SCCF RECON,ioos:station:SCCF:51:1,2010-02-03T17:00:00Z,26.5545,-82.1715,7.23,1111122 
SCCF RECON,ioos:station:SCCF:51:1,2010-02-03T18:00:00Z,26.5545,-82.1715,12.25,1111122 
SCCF RECON,ioos:station:SCCF:51:1,2010-02-03T19:00:00Z,26.5545,-82.1715,16.57,1111122 
SCCF RECON,ioos:station:SCCF:51:1,2010-02-03T20:00:00Z,26.5545,-82.1715,16.28,1111122 
SCCF RECON,ioos:station:SCCF:51:1,2010-02-03T21:00:00Z,26.5545,-82.1715,11.1,1111122 
SCCF RECON,ioos:station:SCCF:51:1,2010-02-03T22:00:00Z,26.5545,-82.1715,9.32,1111122 
SCCF RECON,ioos:station:SCCF:51:1,2010-02-03T23:00:00Z,26.5545,-82.1715,6.31,1111122 
SCCF RECON,ioos:station:SCCF:51:1,2010-02-04T00:00:00Z,26.5545,-82.1715,6.09,1111122 
SCCF RECON,ioos:station:SCCF:51:1,2010-02-04T01:00:00Z,26.5545,-82.1715,5.98,1111122 
SCCF RECON,ioos:station:SCCF:51:1,2010-02-04T02:00:00Z,26.5545,-82.1715,5.43,1111122 
SCCF RECON,ioos:station:SCCF:51:1,2010-02-04T03:00:00Z,26.5545,-82.1715,6.42,1111122 
SCCF RECON,ioos:station:SCCF:51:1,2010-02-04T04:00:00Z,26.5545,-82.1715,6.01,1111122 
SCCF RECON,ioos:station:SCCF:51:1,2010-02-04T05:00:00Z,26.5545,-82.1715,6.63,1111122 
SCCF RECON,ioos:station:SCCF:51:1,2010-02-04T06:00:00Z,26.5545,-82.1715,8.04,1111122 
SCCF RECON,ioos:station:SCCF:51:1,2010-02-04T07:00:00Z,26.5545,-82.1715,8.53,1111122 
SCCF RECON,ioos:station:SCCF:51:1,2010-02-04T08:00:00Z,26.5545,-82.1715,9.39,1111122 
SCCF RECON,ioos:station:SCCF:51:1,2010-02-04T09:00:00Z,26.5545,-82.1715,13.66,1111122 
SCCF RECON,ioos:station:SCCF:51:1,2010-02-04T10:00:00Z,26.5545,-82.1715,18.8,1111122 
SCCF RECON,ioos:station:SCCF:51:1,2010-02-04T11:00:00Z,26.5545,-82.1715,33.77,1111122 
SCCF RECON,ioos:station:SCCF:51:1,2010-02-04T12:00:00Z,26.5545,-82.1715,7.24,1111122 
SCCF RECON,ioos:station:SCCF:51:1,2010-02-04T13:00:00Z,26.5545,-82.1715,8.5,1111122 
SCCF RECON,ioos:station:SCCF:51:1,2010-02-04T14:00:00Z,26.5545,-82.1715,10.28,1111122 
SCCF RECON,ioos:station:SCCF:51:1,2010-02-04T15:00:00Z,26.5545,-82.1715,6.98,1111122 
SCCF RECON,ioos:station:SCCF:51:1,2010-02-04T16:00:00Z,26.5545,-82.1715,6.24,1111122 
SCCF RECON,ioos:station:SCCF:51:1,2010-02-04T18:00:00Z,26.5545,-82.1715,8.38,1111122 
SCCF RECON,ioos:station:SCCF:51:1,2010-02-04T19:00:00Z,26.5545,-82.1715,9.77,1111122 
SCCF RECON,ioos:station:SCCF:51:1,2010-02-04T20:00:00Z,26.5545,-82.1715,9.82,1111122 
SCCF RECON,ioos:station:SCCF:51:1,2010-02-04T21:00:00Z,26.5545,-82.1715,9.2,1111122 
SCCF RECON,ioos:station:SCCF:51:1,2010-02-04T22:00:00Z,26.5545,-82.1715,6.38,1111122 
SCCF RECON,ioos:station:SCCF:51:1,2010-02-04T23:00:00Z,26.5545,-82.1715,6.56,1111122 
SCCF RECON,ioos:station:SCCF:51:1,2010-02-05T00:00:00Z,26.5545,-82.1715,6.65,1111122 
SCCF RECON,ioos:station:SCCF:51:1,2010-02-05T01:00:00Z,26.5545,-82.1715,6.18,1111122 
SCCF RECON,ioos:station:SCCF:51:1,2010-02-05T02:00:00Z,26.5545,-82.1715,5.94,1111122 
SCCF RECON,ioos:station:SCCF:51:1,2010-02-05T03:00:00Z,26.5545,-82.1715,5.21,1111122 
SCCF RECON,ioos:station:SCCF:51:1,2010-02-05T04:00:00Z,26.5545,-82.1715,4.94,1111122 
SCCF RECON,ioos:station:SCCF:51:1,2010-02-05T05:00:00Z,26.5545,-82.1715,5.75,1111122 
SCCF RECON,ioos:station:SCCF:51:1,2010-02-05T06:00:00Z,26.5545,-82.1715,11.57,1111122 
SCCF RECON,ioos:station:SCCF:51:1,2010-02-05T07:00:00Z,26.5545,-82.1715,10.56,1111122 
SCCF RECON,ioos:station:SCCF:51:1,2010-02-05T08:00:00Z,26.5545,-82.1715,8.77,1111122 
SCCF RECON,ioos:station:SCCF:51:1,2010-02-05T09:00:00Z,26.5545,-82.1715,7.96,1111122 
SCCF RECON,ioos:station:SCCF:51:1,2010-02-05T10:00:00Z,26.5545,-82.1715,5.94,1111122 
SCCF RECON,ioos:station:SCCF:51:1,2010-02-05T11:00:00Z,26.5545,-82.1715,6.79,1111122 
SCCF RECON,ioos:station:SCCF:51:1,2010-02-05T12:00:00Z,26.5545,-82.1715,6.58,1111122 
SCCF RECON,ioos:station:SCCF:51:1,2010-02-05T13:00:00Z,26.5545,-82.1715,6.05,1111122 
SCCF RECON,ioos:station:SCCF:51:1,2010-02-05T14:00:00Z,26.5545,-82.1715,5.06,1111122 
SCCF RECON,ioos:station:SCCF:51:1,2010-02-05T15:00:00Z,26.5545,-82.1715,5.41,1111122 
SCCF RECON,ioos:station:SCCF:51:1,2010-02-05T16:00:00Z,26.5545,-82.1715,4.85,1111122 
SCCF RECON,ioos:station:SCCF:51:1,2010-02-05T17:00:00Z,26.5545,-82.1715,6.71,1111122 
SCCF RECON,ioos:station:SCCF:51:1,2010-02-05T18:00:00Z,26.5545,-82.1715,5.34,1111122 
SCCF RECON,ioos:station:SCCF:51:1,2010-02-05T19:00:00Z,26.5545,-82.1715,7.57,1111122 
SCCF RECON,ioos:station:SCCF:51:1,2010-02-05T20:00:00Z,26.5545,-82.1715,7.41,1111122 
SCCF RECON,ioos:station:SCCF:51:1,2010-02-05T21:00:00Z,26.5545,-82.1715,15.07,1111122 
SCCF RECON,ioos:station:SCCF:51:1,2010-02-05T22:00:00Z,26.5545,-82.1715,10.8,1111122 
SCCF RECON,ioos:station:SCCF:51:1,2010-02-05T23:00:00Z,26.5545,-82.1715,7.96,1111122 
SCCF RECON,ioos:station:SCCF:51:1,2010-02-06T00:00:00Z,26.5545,-82.1715,5.94,1111122 
SCCF RECON,ioos:station:SCCF:51:1,2010-02-06T01:00:00Z,26.5545,-82.1715,5.25,1111122 
SCCF RECON,ioos:station:SCCF:51:1,2010-02-06T02:00:00Z,26.5545,-82.1715,5.18,1111122 
SCCF RECON,ioos:station:SCCF:51:1,2010-02-06T03:00:00Z,26.5545,-82.1715,4.95,1111122 
SCCF RECON,ioos:station:SCCF:51:1,2010-02-06T04:00:00Z,26.5545,-82.1715,5.04,1111122 
SCCF RECON,ioos:station:SCCF:51:1,2010-02-06T05:00:00Z,26.5545,-82.1715,5.63,1111122 
SCCF RECON,ioos:station:SCCF:51:1,2010-02-06T06:00:00Z,26.5545,-82.1715,5.25,1111122 
SCCF RECON,ioos:station:SCCF:51:1,2010-02-06T07:00:00Z,26.5545,-82.1715,5.89,1111122 
SCCF RECON,ioos:station:SCCF:51:1,2010-02-06T08:00:00Z,26.5545,-82.1715,5.6,1111122 
SCCF RECON,ioos:station:SCCF:51:1,2010-02-06T09:00:00Z,26.5545,-82.1715,5.85,1111122 
SCCF RECON,ioos:station:SCCF:51:1,2010-02-06T10:00:00Z,26.5545,-82.1715,5.57,1111122 
SCCF RECON,ioos:station:SCCF:51:1,2010-02-06T11:00:00Z,26.5545,-82.1715,8.83,1111122 
SCCF RECON,ioos:station:SCCF:51:1,2010-02-06T12:00:00Z,26.5545,-82.1715,10.63,1111122 
SCCF RECON,ioos:station:SCCF:51:1,2010-02-06T13:00:00Z,26.5545,-82.1715,7.84,1111122 
SCCF RECON,ioos:station:SCCF:51:1,2010-02-06T14:00:00Z,26.5545,-82.1715,6.37,1111122 
SCCF RECON,ioos:station:SCCF:51:1,2010-02-06T15:00:00Z,26.5545,-82.1715,7.73,1111122 
SCCF RECON,ioos:station:SCCF:51:1,2010-02-06T16:00:00Z,26.5545,-82.1715,7.21,1111122 
SCCF RECON,ioos:station:SCCF:51:1,2010-02-06T17:00:00Z,26.5545,-82.1715,7.38,1111122 
SCCF RECON,ioos:station:SCCF:51:1,2010-02-06T18:00:00Z,26.5545,-82.1715,8.26,1111122 
SCCF RECON,ioos:station:SCCF:51:1,2010-02-06T19:00:00Z,26.5545,-82.1715,10.66,1111122 
SCCF RECON,ioos:station:SCCF:51:1,2010-02-06T20:00:00Z,26.5545,-82.1715,9.93,1111122 
SCCF RECON,ioos:station:SCCF:51:1,2010-02-06T21:00:00Z,26.5545,-82.1715,10.7,1111122 
SCCF RECON,ioos:station:SCCF:51:1,2010-02-06T22:00:00Z,26.5545,-82.1715,10.55,1111122 
SCCF RECON,ioos:station:SCCF:51:1,2010-02-06T23:00:00Z,26.5545,-82.1715,9.2,1111122 
SCCF RECON,ioos:station:SCCF:51:1,2010-02-07T00:00:00Z,26.5545,-82.1715,9.54,1111122 
SCCF RECON,ioos:station:SCCF:51:1,2010-02-07T01:00:00Z,26.5545,-82.1715,10.34,1111122 
SCCF RECON,ioos:station:SCCF:51:1,2010-02-07T02:00:00Z,26.5545,-82.1715,10.85,1111122 
SCCF RECON,ioos:station:SCCF:51:1,2010-02-07T03:00:00Z,26.5545,-82.1715,10.32,1111122 
SCCF RECON,ioos:station:SCCF:51:1,2010-02-07T04:00:00Z,26.5545,-82.1715,9.78,1111122 
SCCF RECON,ioos:station:SCCF:51:1,2010-02-07T05:00:00Z,26.5545,-82.1715,11.67,1111122 
SCCF RECON,ioos:station:SCCF:51:1,2010-02-07T06:00:00Z,26.5545,-82.1715,12.11,1111122 
SCCF RECON,ioos:station:SCCF:51:1,2010-02-07T07:00:00Z,26.5545,-82.1715,12.0,1111122 
SCCF RECON,ioos:station:SCCF:51:1,2010-02-07T08:00:00Z,26.5545,-82.1715,10.85,1111122 
SCCF RECON,ioos:station:SCCF:51:1,2010-02-07T09:00:00Z,26.5545,-82.1715,10.5,1111122 
SCCF RECON,ioos:station:SCCF:51:1,2010-02-07T10:00:00Z,26.5545,-82.1715,8.94,1111122 
SCCF RECON,ioos:station:SCCF:51:1,2010-02-07T11:00:00Z,26.5545,-82.1715,9.75,1111122 
SCCF RECON,ioos:station:SCCF:51:1,2010-02-07T12:00:00Z,26.5545,-82.1715,11.02,1111122 
SCCF RECON,ioos:station:SCCF:51:1,2010-02-07T13:00:00Z,26.5545,-82.1715,12.07,1111122 
SCCF RECON,ioos:station:SCCF:51:1,2010-02-07T14:00:00Z,26.5545,-82.1715,12.19,1111122 
SCCF RECON,ioos:station:SCCF:51:1,2010-02-07T15:00:00Z,26.5545,-82.1715,13.61,1111122 
SCCF RECON,ioos:station:SCCF:51:1,2010-02-07T16:00:00Z,26.5545,-82.1715,12.71,1111122 
SCCF RECON,ioos:station:SCCF:51:1,2010-02-07T17:00:00Z,26.5545,-82.1715,10.88,1111122 
SCCF RECON,ioos:station:SCCF:51:1,2010-02-07T18:00:00Z,26.5545,-82.1715,12.89,1111122 
SCCF RECON,ioos:station:SCCF:51:1,2010-02-07T19:00:00Z,26.5545,-82.1715,13.78,1111122 
SCCF RECON,ioos:station:SCCF:51:1,2010-02-07T20:00:00Z,26.5545,-82.1715,12.86,1111122 
SCCF RECON,ioos:station:SCCF:51:1,2010-02-07T21:00:00Z,26.5545,-82.1715,9.85,1111122 
SCCF RECON,ioos:station:SCCF:51:1,2010-02-07T22:00:00Z,26.5545,-82.1715,9.44,1111122 
SCCF RECON,ioos:station:SCCF:51:1,2010-02-07T23:00:00Z,26.5545,-82.1715,7.7,1111122 
SCCF RECON,ioos:station:SCCF:51:1,2010-02-08T00:00:00Z,26.5545,-82.1715,9.88,1111122 
SCCF RECON,ioos:station:SCCF:51:1,2010-02-08T01:00:00Z,26.5545,-82.1715,10.1,1111122 
SCCF RECON,ioos:station:SCCF:51:1,2010-02-08T02:00:00Z,26.5545,-82.1715,7.82,1111122 
SCCF RECON,ioos:station:SCCF:51:1,2010-02-08T03:00:00Z,26.5545,-82.1715,10.3,1111122 
SCCF RECON,ioos:station:SCCF:51:1,2010-02-08T04:00:00Z,26.5545,-82.1715,9.96,1111122 
SCCF RECON,ioos:station:SCCF:51:1,2010-02-08T05:00:00Z,26.5545,-82.1715,8.4,1111122 
SCCF RECON,ioos:station:SCCF:51:1,2010-02-08T06:00:00Z,26.5545,-82.1715,8.69,1111122 
SCCF RECON,ioos:station:SCCF:51:1,2010-02-08T07:00:00Z,26.5545,-82.1715,7.18,1111122 
SCCF RECON,ioos:station:SCCF:51:1,2010-02-08T08:00:00Z,26.5545,-82.1715,7.99,1111122 
SCCF RECON,ioos:station:SCCF:51:1,2010-02-08T09:00:00Z,26.5545,-82.1715,8.03,1111122 
SCCF RECON,ioos:station:SCCF:51:1,2010-02-08T10:00:00Z,26.5545,-82.1715,8.4,1111122 
SCCF RECON,ioos:station:SCCF:51:1,2010-02-08T11:00:00Z,26.5545,-82.1715,8.24,1111122 
SCCF RECON,ioos:station:SCCF:51:1,2010-02-08T12:00:00Z,26.5545,-82.1715,10.79,1111122 
SCCF RECON,ioos:station:SCCF:51:1,2010-02-08T13:00:00Z,26.5545,-82.1715,11.95,1111122 
SCCF RECON,ioos:station:SCCF:51:1,2010-02-08T14:00:00Z,26.5545,-82.1715,15.22,1111122 
SCCF RECON,ioos:station:SCCF:51:1,2010-02-08T15:00:00Z,26.5545,-82.1715,11.38,1111122 
SCCF RECON,ioos:station:SCCF:51:1,2010-02-08T16:00:00Z,26.5545,-82.1715,11.48,1111122 
SCCF RECON,ioos:station:SCCF:51:1,2010-02-08T17:00:00Z,26.5545,-82.1715,13.97,1111122 
SCCF RECON,ioos:station:SCCF:51:1,2010-02-08T18:00:00Z,26.5545,-82.1715,9.55,1111122 
SCCF RECON,ioos:station:SCCF:51:1,2010-02-08T19:00:00Z,26.5545,-82.1715,8.62,1111122 
SCCF RECON,ioos:station:SCCF:51:1,2010-02-08T20:00:00Z,26.5545,-82.1715,8.49,1111122 
SCCF RECON,ioos:station:SCCF:51:1,2010-02-08T21:00:00Z,26.5545,-82.1715,9.56,1111122 
SCCF RECON,ioos:station:SCCF:51:1,2010-02-08T22:00:00Z,26.5545,-82.1715,10.36,1111122 
SCCF RECON,ioos:station:SCCF:51:1,2010-02-08T23:00:00Z,26.5545,-82.1715,10.3,1111122 
SCCF RECON,ioos:station:SCCF:51:1,2010-02-09T00:00:00Z,26.5545,-82.1715,11.59,1111122 
SCCF RECON,ioos:station:SCCF:51:1,2010-02-09T01:00:00Z,26.5545,-82.1715,8.58,1111122 
SCCF RECON,ioos:station:SCCF:51:1,2010-02-09T02:00:00Z,26.5545,-82.1715,9.93,1111122 
SCCF RECON,ioos:station:SCCF:51:1,2010-02-09T03:00:00Z,26.5545,-82.1715,8.67,1111122 
SCCF RECON,ioos:station:SCCF:51:1,2010-02-09T04:00:00Z,26.5545,-82.1715,8.3,1111122 
SCCF RECON,ioos:station:SCCF:51:1,2010-02-09T05:00:00Z,26.5545,-82.1715,7.64,1111122 
SCCF RECON,ioos:station:SCCF:51:1,2010-02-09T06:00:00Z,26.5545,-82.1715,6.62,1111122 
SCCF RECON,ioos:station:SCCF:51:1,2010-02-09T07:00:00Z,26.5545,-82.1715,6.69,1111122 
SCCF RECON,ioos:station:SCCF:51:1,2010-02-09T08:00:00Z,26.5545,-82.1715,6.49,1111122 
SCCF RECON,ioos:station:SCCF:51:1,2010-02-09T09:00:00Z,26.5545,-82.1715,6.65,1111122 
SCCF RECON,ioos:station:SCCF:51:1,2010-02-09T10:00:00Z,26.5545,-82.1715,6.43,1111122 
SCCF RECON,ioos:station:SCCF:51:1,2010-02-09T11:00:00Z,26.5545,-82.1715,14.07,1111122 
SCCF RECON,ioos:station:SCCF:51:1,2010-02-09T12:00:00Z,26.5545,-82.1715,11.22,1111122 
SCCF RECON,ioos:station:SCCF:51:1,2010-02-09T13:00:00Z,26.5545,-82.1715,10.89,1111122 
SCCF RECON,ioos:station:SCCF:51:1,2010-02-09T14:00:00Z,26.5545,-82.1715,12.89,1111122 
SCCF RECON,ioos:station:SCCF:51:1,2010-02-09T15:00:00Z,26.5545,-82.1715,11.24,1111122 
SCCF RECON,ioos:station:SCCF:51:1,2010-02-09T16:00:00Z,26.5545,-82.1715,10.35,1111122 
SCCF RECON,ioos:station:SCCF:51:1,2010-02-09T17:00:00Z,26.5545,-82.1715,14.26,1111122 
SCCF RECON,ioos:station:SCCF:51:1,2010-02-09T18:00:00Z,26.5545,-82.1715,15.37,1111122 
SCCF RECON,ioos:station:SCCF:51:1,2010-02-09T19:00:00Z,26.5545,-82.1715,14.84,1111122 
SCCF RECON,ioos:station:SCCF:51:1,2010-02-09T20:00:00Z,26.5545,-82.1715,14.29,1111122 
SCCF RECON,ioos:station:SCCF:51:1,2010-02-09T21:00:00Z,26.5545,-82.1715,11.58,1111122 
SCCF RECON,ioos:station:SCCF:51:1,2010-02-09T22:00:00Z,26.5545,-82.1715,16.59,1111122 
SCCF RECON,ioos:station:SCCF:51:1,2010-02-09T23:00:00Z,26.5545,-82.1715,15.78,1111122 
SCCF RECON,ioos:station:SCCF:51:1,2010-02-10T00:00:00Z,26.5545,-82.1715,19.41,1111122 
SCCF RECON,ioos:station:SCCF:51:1,2010-02-10T01:00:00Z,26.5545,-82.1715,11.65,1111122 
SCCF RECON,ioos:station:SCCF:51:1,2010-02-10T02:00:00Z,26.5545,-82.1715,11.04,1111122 
SCCF RECON,ioos:station:SCCF:51:1,2010-02-10T03:00:00Z,26.5545,-82.1715,9.48,1111122 
SCCF RECON,ioos:station:SCCF:51:1,2010-02-10T04:00:00Z,26.5545,-82.1715,11.69,1111122 
SCCF RECON,ioos:station:SCCF:51:1,2010-02-10T05:00:00Z,26.5545,-82.1715,11.91,1111122 
SCCF RECON,ioos:station:SCCF:51:1,2010-02-10T06:00:00Z,26.5545,-82.1715,13.71,1111122 
SCCF RECON,ioos:station:SCCF:51:1,2010-02-10T07:00:00Z,26.5545,-82.1715,11.24,1111122 
SCCF RECON,ioos:station:SCCF:51:1,2010-02-10T08:00:00Z,26.5545,-82.1715,10.31,1111122 
SCCF RECON,ioos:station:SCCF:51:1,2010-02-10T09:00:00Z,26.5545,-82.1715,16.91,1111122 
SCCF RECON,ioos:station:SCCF:51:1,2010-02-10T10:00:00Z,26.5545,-82.1715,26.57,1111122 
SCCF RECON,ioos:station:SCCF:51:1,2010-02-10T11:00:00Z,26.5545,-82.1715,23.39,1111122 
SCCF RECON,ioos:station:SCCF:51:1,2010-02-10T12:00:00Z,26.5545,-82.1715,26.19,1111122 
SCCF RECON,ioos:station:SCCF:51:1,2010-02-10T13:00:00Z,26.5545,-82.1715,26.37,1111122 
SCCF RECON,ioos:station:SCCF:51:1,2010-02-10T14:00:00Z,26.5545,-82.1715,26.04,1111122 
SCCF RECON,ioos:station:SCCF:51:1,2010-02-10T15:00:00Z,26.5545,-82.1715,27.44,1111122 
SCCF RECON,ioos:station:SCCF:51:1,2010-02-10T16:00:00Z,26.5545,-82.1715,24.4,1111122 
SCCF RECON,ioos:station:SCCF:51:1,2010-02-10T17:00:00Z,26.5545,-82.1715,18.78,1111122 
SCCF RECON,ioos:station:SCCF:51:1,2010-02-10T18:00:00Z,26.5545,-82.1715,16.39,1111122 
SCCF RECON,ioos:station:SCCF:51:1,2010-02-10T19:00:00Z,26.5545,-82.1715,18.22,1111122 
SCCF RECON,ioos:station:SCCF:51:1,2010-02-10T20:00:00Z,26.5545,-82.1715,16.21,1111122 
SCCF RECON,ioos:station:SCCF:51:1,2010-02-10T21:00:00Z,26.5545,-82.1715,18.59,1111122 
SCCF RECON,ioos:station:SCCF:51:1,2010-02-10T22:00:00Z,26.5545,-82.1715,20.9,1111122 
SCCF RECON,ioos:station:SCCF:51:1,2010-02-10T23:00:00Z,26.5545,-82.1715,19.4,1111122 
SCCF RECON,ioos:station:SCCF:51:1,2010-02-11T00:00:00Z,26.5545,-82.1715,20.78,1111122 
SCCF RECON,ioos:station:SCCF:51:1,2010-02-11T01:00:00Z,26.5545,-82.1715,18.1,1111122 
SCCF RECON,ioos:station:SCCF:51:1,2010-02-11T02:00:00Z,26.5545,-82.1715,25.56,1111122 
SCCF RECON,ioos:station:SCCF:51:1,2010-02-11T03:00:00Z,26.5545,-82.1715,22.94,1111122 
SCCF RECON,ioos:station:SCCF:51:1,2010-02-11T04:00:00Z,26.5545,-82.1715,15.11,1111122 
SCCF RECON,ioos:station:SCCF:51:1,2010-02-11T05:00:00Z,26.5545,-82.1715,19.61,1111122 
SCCF RECON,ioos:station:SCCF:51:1,2010-02-11T06:00:00Z,26.5545,-82.1715,24.1,1111122 
SCCF RECON,ioos:station:SCCF:51:1,2010-02-11T07:00:00Z,26.5545,-82.1715,31.58,1111122 
SCCF RECON,ioos:station:SCCF:51:1,2010-02-11T08:00:00Z,26.5545,-82.1715,28.08,1111122 
SCCF RECON,ioos:station:SCCF:51:1,2010-02-11T09:00:00Z,26.5545,-82.1715,23.77,1111122 
SCCF RECON,ioos:station:SCCF:51:1,2010-02-11T10:00:00Z,26.5545,-82.1715,21.51,1111122 
SCCF RECON,ioos:station:SCCF:51:1,2010-02-11T11:00:00Z,26.5545,-82.1715,17.43,1111122 
SCCF RECON,ioos:station:SCCF:51:1,2010-02-11T12:00:00Z,26.5545,-82.1715,17.13,1111122 
SCCF RECON,ioos:station:SCCF:51:1,2010-02-11T13:00:00Z,26.5545,-82.1715,17.56,1111122 
SCCF RECON,ioos:station:SCCF:51:1,2010-02-11T14:00:00Z,26.5545,-82.1715,19.42,1111122 
SCCF RECON,ioos:station:SCCF:51:1,2010-02-11T15:00:00Z,26.5545,-82.1715,20.07,1111122 
SCCF RECON,ioos:station:SCCF:51:1,2010-02-11T16:00:00Z,26.5545,-82.1715,22.46,1111122 
SCCF RECON,ioos:station:SCCF:51:1,2010-02-11T17:00:00Z,26.5545,-82.1715,18.15,1111122 
SCCF RECON,ioos:station:SCCF:51:1,2010-02-11T18:00:00Z,26.5545,-82.1715,15.77,1111122 
SCCF RECON,ioos:station:SCCF:51:1,2010-02-11T19:00:00Z,26.5545,-82.1715,15.09,1111122 
SCCF RECON,ioos:station:SCCF:51:1,2010-02-11T20:00:00Z,26.5545,-82.1715,13.42,1111122 
SCCF RECON,ioos:station:SCCF:51:1,2010-02-11T21:00:00Z,26.5545,-82.1715,15.31,1111122 
SCCF RECON,ioos:station:SCCF:51:1,2010-02-11T22:00:00Z,26.5545,-82.1715,12.17,1111122 
SCCF RECON,ioos:station:SCCF:51:1,2010-02-11T23:00:00Z,26.5545,-82.1715,11.7,1111122 
SCCF RECON,ioos:station:SCCF:51:1,2010-02-12T00:00:00Z,26.5545,-82.1715,11.01,1111122 
SCCF RECON,ioos:station:SCCF:51:1,2010-02-12T01:00:00Z,26.5545,-82.1715,11.92,1111122 
SCCF RECON,ioos:station:SCCF:51:1,2010-02-12T02:00:00Z,26.5545,-82.1715,14.16,1111122 
SCCF RECON,ioos:station:SCCF:51:1,2010-02-12T03:00:00Z,26.5545,-82.1715,12.57,1111122 
SCCF RECON,ioos:station:SCCF:51:1,2010-02-12T04:00:00Z,26.5545,-82.1715,13.73,1111122 
SCCF RECON,ioos:station:SCCF:51:1,2010-02-12T05:00:00Z,26.5545,-82.1715,9.72,1111122 
SCCF RECON,ioos:station:SCCF:51:1,2010-02-12T06:00:00Z,26.5545,-82.1715,9.55,1111122 
SCCF RECON,ioos:station:SCCF:51:1,2010-02-12T07:00:00Z,26.5545,-82.1715,8.92,1111122 
SCCF RECON,ioos:station:SCCF:51:1,2010-02-12T08:00:00Z,26.5545,-82.1715,8.37,1111122 
SCCF RECON,ioos:station:SCCF:51:1,2010-02-12T09:00:00Z,26.5545,-82.1715,7.98,1111122 
SCCF RECON,ioos:station:SCCF:51:1,2010-02-12T10:00:00Z,26.5545,-82.1715,7.48,1111122 
SCCF RECON,ioos:station:SCCF:51:1,2010-02-12T11:00:00Z,26.5545,-82.1715,6.92,1111122 
SCCF RECON,ioos:station:SCCF:51:1,2010-02-12T12:00:00Z,26.5545,-82.1715,6.52,1111122 
SCCF RECON,ioos:station:SCCF:51:1,2010-02-12T13:00:00Z,26.5545,-82.1715,7.12,1111122 